Regional Weather Roundup
Issued by NWS Boston, MA

Home | Current Version | Previous Version | Text Only | Print | Product List | Glossary On
Versions: 1 2 3 4 5 6 7 8 9 10 11 12 13 14 15 16 17 18 19 20 21 22 23 24 25 26 27 28 29 30 31 32 33 34 35 36 37 38 39 40 41 42 43 44 45 46 47 48 49 50
329
ASUS41 KBOX 121810
RWRBOX

REGIONAL WEATHER ROUNDUP
NATIONAL WEATHER SERVICE TAUNTON MA
100 PM EST FRI FEB 12 2016

NOTE:  "FAIR" INDICATES FEW OR NO CLOUDS BELOW 12,000 FEET WITH NO
SIGNIFICANT WEATHER AND/OR OBSTRUCTIONS TO VISIBILITY.  THE FOLLOWING
OBSERVATION LOCATIONS DO NOT REPORT PRESENT WEATHER...PROVINCETOWN...
SMITHFIELD...BLOCK ISLAND...KEENE...AND OXFORD.

MAZALL-121900-
EASTERN MASSACHUSETTS

CITY           SKY/WX    TMP DP  RH WIND       PRES   REMARKS
BOSTON         PTSUNNY   21   1  41 SW8       30.11F WCI  11
6HR MIN TEMP:   8; 6HR MAX TEMP:  22;

BEVERLY        SUNNY     20  -3  36 W8        30.09F WCI  10
LAWRENCE       MOSUNNY   20   0  41 W12       30.10F WCI   8
BEDFORD        SUNNY     20  -2  38 SW8       30.09F WCI  10
BLUE HILL        N/A     19   0  43 SW8       30.05F WCI   9
NORWOOD        SUNNY     22   1  40 MISG      30.11F
MARSHFIELD     SUNNY     23   1  39 W8        30.14F WCI  14
PLYMOUTH       SUNNY     20   1  43 SW10      30.13F WCI   9
TAUNTON        SUNNY     23   0  36 VRB6      30.12F WCI  16
NEW BEDFORD    SUNNY     20   2  45 SW9       30.13F WCI   9
$$

MAZALL-121900-
CAPE COD AND THE ISLANDS

CITY           SKY/WX    TMP DP  RH WIND       PRES   REMARKS
FALMOUTH       SUNNY     19   1  45 SW7       30.13F WCI  10
HYANNIS        SUNNY     20  -2  38 SW5       30.13F WCI  13
CHATHAM        SUNNY     19   2  47 SW9       30.15F WCI   8
PROVINCETOWN   SUNNY     21   5  50 W10       30.14F WCI  10
NANTUCKET      SUNNY     21   7  54 SW12      30.15F WCI   9
MARTHAS VNYRD  SUNNY     21   4  47 NW8G16    30.14F WCI  11
$$

MAZALL-121900-
CENTRAL AND WESTERN MASSACHUSETTS

CITY           SKY/WX    TMP DP  RH WIND       PRES   REMARKS
WORCESTER      SUNNY     16   0  49 W12       30.03F WCI   3
6HR MIN TEMP:  -2; 6HR MAX TEMP:  16;

FITCHBURG      CLOUDY    20   1  43 VRB7      30.08F WCI  11
ORANGE         CLOUDY    17   1  49 SW7       30.06F WCI   8
SPRINGFIELD    CLOUDY    21   3  45 SW7       30.08F WCI  12
WESTFIELD      CLOUDY    21   1  41 SW7       30.08F WCI  12
NORTH ADAMS    CLOUDY    19   0  43 VRB3      30.03F
PITTSFIELD     MOSUNNY   17  -2  43 SW12      29.98F WCI   4
$$

RIZALL-121900-
RHODE ISLAND

CITY           SKY/WX    TMP DP  RH WIND       PRES   REMARKS
PROVIDENCE     PTSUNNY   21   2  43 VRB5      30.13F WCI  15
6HR MIN TEMP:   7; 6HR MAX TEMP:  22;

NEWPORT        SUNNY     21   2  43 VRB3      30.12F
BLOCK ISLAND   MOSUNNY   25  10  54 W12       30.13F WCI  14
SMITHFIELD     SUNNY     21   0  39 SW3       30.08F
WESTERLY       SUNNY     24   6  46 W7        30.14F WCI  16
$$

CTZALL-121900-
CONNECTICUT

CITY           SKY/WX    TMP DP  RH WIND       PRES   REMARKS
BRADLEY INTL   CLOUDY    22   1  40 SW9       30.09F WCI  12
6HR MIN TEMP:   6; 6HR MAX TEMP:  22;

HARTFORD       MOSUNNY   23   3  42 S12       30.12F WCI  12
BRIDGEPORT     SUNNY     25   2  37 SW10      30.14F WCI  15
DANBURY        MOSUNNY   21  -2  36 VRB5      30.10F WCI  15
GROTON         SUNNY     22   9  57 SW9       30.14F WCI  12
NEW HAVEN      SUNNY     22   2  42 S10G17    30.14F WCI  11
CHESTER        FAIR      23   1  39 S10       30.11F WCI  12
MERIDEN        MOSUNNY   23  -2  33 S9        30.12F WCI  13
WILLIMANTIC    SUNNY     22  -1  36 S5        30.12F WCI  16
OXFORD         MOSUNNY   19  -2  38 SW6       30.09F WCI  11
$$

MEZ002-015-021-024-NHZ003-005-008-011-012-014-VTZ005-008-121900-
NORTHERN NEW ENGLAND

CITY           SKY/WX    TMP DP  RH WIND       PRES   REMARKS
PORTLAND ME    PTSUNNY   17  -5  37 CALM      30.06F
6HR MIN TEMP:  -2; 6HR MAX TEMP:  18; 6HR PCP:  0.02;

BANGOR ME      MOSUNNY   10 -10  40 W10G18    30.03F WCI  -4
CONCORD NH     SUNNY     21  -3  35 CALM      30.05F
MANCHESTER NH  PTSUNNY   21  -1  38 W16       30.06F WCI   7
NASHUA NH      SUNNY     23   1  39 VRB5      30.08F WCI  17
PORTSMOUTH NH  PTSUNNY   19  -3  37 SW9       30.06F WCI   8
JAFFREY NH     CLOUDY    16   1  51 SW8G18    30.01F WCI   5
KEENE NH       CLOUDY    19   1  45 SW14G20   30.05F WCI   6
BURLINGTON VT  FAIR      18   3  52 S17       29.97F WCI   3
MT. WASHINGTON NOT AVBL
$$

NYZ052-076-121900-
EASTERN NEW YORK

CITY           SKY/WX    TMP DP  RH WIND       PRES   REMARKS
ALBANY         CLOUDY    23   4  44 SE7       30.05F WCI  15
6HR MIN TEMP:   4; 6HR MAX TEMP:  23;

NEW YORK CITY  PTSUNNY   26   0  32 S10       30.13F WCI  16
6HR MIN TEMP:  17; 6HR MAX TEMP:  26;

$$

ANZALL-121900-
MARINE OBSERVATIONS

STATION/POSITION TIME  TEMP    WIND        PRES    VSBY  WAVE
                       AIR SEA DIR/SP/G                  HT/PER
                 (UTC) (F)     (DEG/KT/KT) (MB)    (MI)  (FT/S)
BOSTON BUOY      1750   19 41  260/ 10/ 16 1019.6F         2/ 3
BUZZARDS BAY     1700          270/ 11/ 13 1022.5F
NANTUCKET SOUND  1750   20 38  280/ 12/ 16 1020.9F         1/11
MASS BAY-STELLWA 1704   19 41  260/ 12/ 16   N/A    1 7/8  2/ 4
ISLE OF SHOALS   1700   16     260/ 13/ 16 1019.2F
S OF BLOCK IS    NOT AVBL
$$

......................KEY.........................
  SKY/WX - SKY CONDITION/PRESENT WEATHER
  TMP    - TEMPERATURE IN FAHRENHEIT
  DWPT   - DEWPOINT IN FAHRENHEIT
  RH     - RELATIVE HUMIDITY IN PERCENT
  WIND   - DIRECTION AND SPEED IN MPH
  PRES   - MEAN SEA LEVEL PRESSURE IN INCHES OF HG
  WCI    - WIND CHILL INDEX
  VSB    - VISIBILITY IN MILES
  HX     - HEAT INDEX
  TC     - TEMPERATURE IN CELSIUS
  VRB    - VARIABLE WIND DIRECTION
  N/A    - NOT AVAILABLE




USA.gov is the U.S. government's official web portal to all federal, state and local government web resources and services.